Weather History for KGOO - July, 2013

Change the Weather History Date:

Monday, July 22, 2013

  Actual Average (KBLU) Record (KBLU)
Temperature  
Mean Temperature 78 °F -  
Max Temperature 86 °F 78 °F 89 °F (2006)
Min Temperature 69 °F 59 °F 40 °F (1987)
Cooling Degree Days 12    
Growing Degree Days 28 (Base 50)    
Moisture  
Dew Point 43 °F    
Average Humidity 30    
Maximum Humidity 44    
Minimum Humidity 20    
Precipitation  
Precipitation 0.00 in - - ()
Sea Level Pressure  
Sea Level Pressure 30.03 in    
Wind  
Wind Speed 4 mph (SE)    
Max Wind Speed 10 mph    
Max Gust Speed 16 mph    
Visibility 10 miles    
Events      
Averages and records for this station are not official NWS values.
T = Trace of Precipitation, MM = Missing Value Source: NWS Daily Summary

Daily Weather History Graph

Daily Weather History Graph

Search for Another Location

Airport or City:

Trip Planner

Search our weather history database for the weather conditions in past years. The results will help you decide how hot, cold, wet, or windy it might be!

Date:

Astronomy

Jul. 22, 2013 Rise Set
Actual Time 5:55 AM PDT 8:24 PM PDT
Civil Twilight 5:25 AM PDT 8:55 PM PDT
Nautical Twilight 4:46 AM PDT 9:33 PM PDT
Astronomical Twilight 4:04 AM PDT 10:15 PM PDT
Moon 8:15 PM PDT (7/22) 5:58 AM PDT (7/22)
Length of Visible Light 15h 30m
Length of Day
14h 28m
Full, 100% of the Moon is Illuminated
Jul 22
Full
Jul 29
Last Quarter
Aug 6
New
Aug 14
First Quarter
Aug 20
Full

Hourly Weather History & Observations

Time (PDT) Temp. Dew Point Humidity Pressure Visibility Wind Dir Wind Speed Gust Speed Precip Events Conditions
12:00 AM 71.6 °F 42.8 °F 35% 29.99 in 10.0 mi SE 8.1 mph - N/A   Clear
12:20 AM 71.6 °F 39.2 °F 31% 30.00 in 10.0 mi SE 8.1 mph - N/A   Clear
12:40 AM 71.6 °F 37.4 °F 29% 30.00 in 10.0 mi SE 8.1 mph 16.1 mph N/A   Clear
1:00 AM 71.6 °F 35.6 °F 27% 30.00 in 10.0 mi SE 6.9 mph - N/A   Clear
1:20 AM 69.8 °F 35.6 °F 28% 30.00 in 10.0 mi SE 6.9 mph - N/A   Clear
1:40 AM 71.6 °F 35.6 °F 27% 29.99 in 10.0 mi SE 5.8 mph - N/A   Clear
2:00 AM 71.6 °F 35.6 °F 27% 29.99 in 10.0 mi SE 6.9 mph - N/A   Clear
2:20 AM 71.6 °F 37.4 °F 29% 29.99 in 10.0 mi ESE 5.8 mph - N/A   Clear
2:40 AM 71.6 °F 39.2 °F 31% 29.99 in 10.0 mi SE 6.9 mph - N/A   Clear
3:00 AM 71.6 °F 37.4 °F 29% 30.00 in 10.0 mi SE 4.6 mph - N/A   Clear
3:20 AM 71.6 °F 35.6 °F 27% 29.99 in 10.0 mi ESE 5.8 mph - N/A   Clear
3:40 AM 71.6 °F 35.6 °F 27% 29.99 in 10.0 mi SE 3.5 mph - N/A   Clear
4:00 AM 69.8 °F 35.6 °F 28% 29.99 in 10.0 mi SE 4.6 mph - N/A   Clear
4:20 AM 71.6 °F 33.8 °F 25% 29.99 in 10.0 mi SE 4.6 mph - N/A   Clear
4:40 AM 71.6 °F 33.8 °F 25% 29.99 in 10.0 mi SE 4.6 mph - N/A   Clear
5:00 AM 71.6 °F 35.6 °F 27% 29.99 in 10.0 mi SE 3.5 mph - N/A   Clear
5:20 AM 71.6 °F 44.6 °F 38% 29.99 in 10.0 mi Calm Calm - N/A   Clear
5:40 AM 71.6 °F 48.2 °F 43% 30.00 in 10.0 mi SE 4.6 mph - N/A   Clear
6:00 AM 71.6 °F 48.2 °F 43% 30.00 in 10.0 mi Calm Calm - N/A   Clear
6:20 AM 71.6 °F 48.2 °F 43% 30.01 in 10.0 mi SE 3.5 mph - N/A   Clear
6:40 AM 71.6 °F 48.2 °F 43% 30.01 in 10.0 mi Calm Calm - N/A   Clear
7:00 AM 71.6 °F 48.2 °F 43% 30.02 in 10.0 mi Calm Calm - N/A   Clear
7:20 AM 71.6 °F 48.2 °F 43% 30.02 in 10.0 mi SE 3.5 mph - N/A   Clear
7:40 AM 73.4 °F 48.2 °F 41% 30.03 in 10.0 mi Calm Calm - N/A   Clear
8:00 AM 73.4 °F 50.0 °F 44% 30.03 in 10.0 mi Calm Calm - N/A   Clear
8:20 AM 75.2 °F 50.0 °F 41% 30.04 in 10.0 mi Calm Calm - N/A   Clear
8:40 AM 75.2 °F 48.2 °F 38% 30.04 in 10.0 mi SSE 4.6 mph - N/A   Clear
9:00 AM 75.2 °F 48.2 °F 38% 30.05 in 10.0 mi SSE 3.5 mph - N/A   Clear
9:20 AM 75.2 °F 51.8 °F 44% 30.05 in 10.0 mi Calm Calm - N/A   Clear
9:40 AM 75.2 °F 48.2 °F 38% 30.05 in 10.0 mi SE 4.6 mph - N/A   Clear
10:00 AM 75.2 °F 44.6 °F 34% 30.05 in 10.0 mi Calm Calm - N/A   Clear
10:20 AM 77.0 °F 46.4 °F 34% 30.05 in 10.0 mi SSE 4.6 mph - N/A   Clear
10:40 AM 77.0 °F 48.2 °F 36% 30.06 in 10.0 mi Calm Calm - N/A   Clear
11:00 AM 78.8 °F 48.2 °F 34% 30.05 in 10.0 mi East 3.5 mph - N/A   Clear
11:20 AM 80.6 °F 48.2 °F 32% 30.06 in 10.0 mi Calm Calm - N/A   Clear
11:40 AM 80.6 °F 48.2 °F 32% 30.06 in 10.0 mi Calm Calm - N/A   Clear
12:00 PM 80.6 °F 48.2 °F 32% 30.06 in 10.0 mi Calm Calm - N/A   Clear
12:20 PM 84.2 °F 48.2 °F 29% 30.06 in 10.0 mi Calm Calm - N/A   Clear
12:40 PM 84.2 °F 48.2 °F 29% 30.05 in 10.0 mi Calm Calm - N/A   Partly Cloudy
1:00 PM 86.0 °F 46.4 °F 25% 30.05 in 10.0 mi SW 5.8 mph - N/A   Clear
1:20 PM 84.2 °F 44.6 °F 25% 30.05 in 10.0 mi SW 6.9 mph - N/A   Partly Cloudy
1:40 PM 84.2 °F 42.8 °F 23% 30.05 in 10.0 mi Calm Calm - N/A   Scattered Clouds
2:00 PM 84.2 °F 44.6 °F 25% 30.05 in 10.0 mi West 3.5 mph - N/A   Scattered Clouds
2:20 PM 84.2 °F 41.0 °F 22% 30.05 in 10.0 mi WSW 5.8 mph - N/A   Scattered Clouds
2:40 PM 84.2 °F 39.2 °F 20% 30.05 in 10.0 mi SW 3.5 mph - N/A   Partly Cloudy
3:00 PM 86.0 °F 41.0 °F 20% 30.05 in 10.0 mi Calm Calm - N/A   Scattered Clouds
3:20 PM 84.2 °F 41.0 °F 22% 30.04 in 10.0 mi WSW 4.6 mph - N/A   Partly Cloudy
3:40 PM 84.2 °F 42.8 °F 23% 30.04 in 10.0 mi Calm Calm - N/A   Partly Cloudy
4:00 PM 84.2 °F 41.0 °F 22% 30.04 in 10.0 mi West 3.5 mph - N/A   Clear
4:20 PM 84.2 °F 41.0 °F 22% 30.04 in 10.0 mi SW 3.5 mph - N/A   Partly Cloudy
4:40 PM 84.2 °F 39.2 °F 20% 30.04 in 10.0 mi Calm Calm - N/A   Partly Cloudy
5:00 PM 84.2 °F 41.0 °F 22% 30.04 in 10.0 mi Calm Calm - N/A   Clear
5:20 PM 84.2 °F 39.2 °F 20% 30.04 in 10.0 mi Calm Calm - N/A   Clear
5:40 PM 84.2 °F 39.2 °F 20% 30.04 in 10.0 mi Calm Calm - N/A   Clear
6:00 PM 82.4 °F 42.8 °F 25% 30.04 in 10.0 mi Calm Calm - N/A   Clear
6:20 PM 82.4 °F 46.4 °F 28% 30.04 in 10.0 mi Calm Calm - N/A   Clear
6:40 PM 82.4 °F 46.4 °F 28% 30.04 in 10.0 mi Calm Calm - N/A   Clear
7:00 PM 80.6 °F 46.4 °F 30% 30.03 in 10.0 mi Calm Calm - N/A   Clear
7:20 PM 78.8 °F 46.4 °F 32% 30.04 in 10.0 mi Calm Calm - N/A   Clear
7:40 PM 78.8 °F 46.4 °F 32% 30.04 in 10.0 mi Calm Calm - N/A   Clear
8:00 PM 78.8 °F 42.8 °F 28% 30.03 in 10.0 mi Calm Calm - N/A   Clear
8:20 PM 77.0 °F 46.4 °F 34% 30.04 in 10.0 mi Calm Calm - N/A   Clear
8:40 PM 75.2 °F 44.6 °F 34% 30.05 in 10.0 mi Calm Calm - N/A   Clear
9:00 PM 73.4 °F 37.4 °F 27% 30.06 in 10.0 mi Calm Calm - N/A   Clear
9:20 PM 71.6 °F 37.4 °F 29% 30.07 in 10.0 mi SSE 8.1 mph - N/A   Clear
9:40 PM 71.6 °F 37.4 °F 29% 30.08 in 10.0 mi SE 5.8 mph - N/A   Clear
10:00 PM 69.8 °F 37.4 °F 31% 30.08 in 10.0 mi SE 5.8 mph - N/A   Clear
10:20 PM 71.6 °F 37.4 °F 29% 30.08 in 10.0 mi ESE 8.1 mph - N/A   Clear
10:40 PM 71.6 °F 37.4 °F 29% 30.08 in 10.0 mi ESE 9.2 mph - N/A   Clear
11:00 PM 71.6 °F 37.4 °F 29% 30.08 in 10.0 mi ESE 10.4 mph - N/A   Clear
11:20 PM 71.6 °F 37.4 °F 29% 30.08 in 10.0 mi SE 3.5 mph - N/A   Clear
11:40 PM 73.4 °F 39.2 °F 29% 30.08 in 10.0 mi ESE 8.1 mph - N/A   Clear